LGR888 LEMD-GVNP

Flight info

Callsign LGR888
Flight time 4h 40m
Altitude 38000
Route CCS N975 ELVAR DCT BAROK UN873 SAMAR N873 IPERA DCT BVT DISDA1H
Aircraft A339/H-SADE1E2E3GHIJ3J5M1P2RWXY/LB2D1

Departure

Time 2026-04-19 05:11
Airport Adolfo Suárez Madrid–Barajas Airport (LEMD)

Arrival

Time 2026-04-19 09:52
Airport Nelson Mandela International Airport (GVNP)
Time Latitude Longitude Altitude Speed Heading
2026-04-19 04:48 40.49339 -3.56857 2016 ft 0 kts 89°
2026-04-19 05:02 40.49339 -3.56865 2016 ft 2 kts 89°
2026-04-19 05:02 40.49339 -3.56884 2016 ft 2 kts 89°
2026-04-19 05:02 40.49339 -3.56903 2016 ft 2 kts 89°
2026-04-19 05:02 40.49339 -3.56921 2016 ft 2 kts 89°
2026-04-19 05:03 40.49339 -3.56939 2016 ft 2 kts 99°
2026-04-19 05:03 40.49343 -3.56957 2016 ft 2 kts 115°
2026-04-19 05:03 40.49350 -3.56973 2016 ft 2 kts 129°
2026-04-19 05:03 40.49360 -3.56987 2016 ft 2 kts 143°
2026-04-19 05:04 40.49372 -3.56996 2016 ft 2 kts 157°
2026-04-19 05:04 40.49387 -3.57002 2016 ft 2 kts 172°
2026-04-19 05:04 40.49395 -3.57003 2016 ft 0 kts 180°
2026-04-19 05:04 40.49398 -3.57003 2016 ft 0 kts 180°
2026-04-19 05:06 40.49397 -3.57003 2016 ft 0 kts 180°
2026-04-19 05:07 40.49380 -3.57003 2016 ft 4 kts 180°
2026-04-19 05:07 40.49343 -3.57008 2016 ft 6 kts 193°
2026-04-19 05:07 40.49308 -3.57043 2016 ft 7 kts 234°
2026-04-19 05:07 40.49290 -3.57116 2016 ft 10 kts 259°
2026-04-19 05:08 40.49267 -3.57206 2016 ft 11 kts 223°
2026-04-19 05:08 40.49184 -3.57320 2016 ft 0 kts 267°
2026-04-19 05:09 40.49184 -3.57323 2016 ft 1 kts 267°
2026-04-19 05:09 40.49183 -3.57365 2016 ft 7 kts 268°
2026-04-19 05:10 40.49203 -3.57438 2016 ft 9 kts 317°
2026-04-19 05:10 40.49271 -3.57462 2016 ft 12 kts 358°
2026-04-19 05:10 40.49287 -3.57462 2016 ft 6 kts 359°
2026-04-19 05:10 40.49517 -3.57464 2016 ft 64 kts 359°
2026-04-19 05:11 40.50093 -3.57477 2016 ft 114 kts 360°
2026-04-19 05:11 40.50945 -3.57480 2016 ft 156 kts 359°
2026-04-19 05:11 40.52049 -3.57485 2367 ft 166 kts 360°
2026-04-19 05:11 40.53188 -3.57498 2861 ft 168 kts 360°
2026-04-19 05:12 40.54349 -3.57517 3383 ft 169 kts
2026-04-19 05:12 40.55508 -3.57447 3837 ft 172 kts
2026-04-19 05:12 40.56692 -3.57096 4097 ft 184 kts 15°
2026-04-19 05:12 40.57939 -3.56600 4356 ft 198 kts 17°
2026-04-19 05:13 40.59273 -3.56050 4628 ft 213 kts 17°
2026-04-19 05:13 40.60691 -3.55470 4913 ft 228 kts 17°
2026-04-19 05:13 40.62228 -3.54849 5238 ft 243 kts 16°
2026-04-19 05:13 40.63882 -3.54320 5793 ft 248 kts
2026-04-19 05:14 40.65590 -3.54062 6430 ft 250 kts
2026-04-19 05:14 40.67317 -3.53907 7040 ft 253 kts
2026-04-19 05:14 40.69033 -3.54198 7617 ft 254 kts 334°
2026-04-19 05:14 40.70431 -3.55569 8189 ft 254 kts 304°
2026-04-19 05:15 40.71174 -3.57642 8508 ft 265 kts 277°
2026-04-19 05:15 40.71002 -3.60057 8836 ft 276 kts 246°
2026-04-19 05:15 40.70113 -3.62271 9542 ft 279 kts 240°
2026-04-19 05:15 40.69188 -3.64496 10278 ft 280 kts 240°
2026-04-19 05:16 40.68262 -3.66755 10697 ft 292 kts 241°
2026-04-19 05:16 40.67290 -3.69152 10936 ft 309 kts 241°
2026-04-19 05:16 40.66283 -3.71649 11230 ft 325 kts 242°
2026-04-19 05:16 40.65205 -3.74331 11711 ft 335 kts 242°
2026-04-19 05:17 40.64126 -3.77016 12340 ft 338 kts 242°
2026-04-19 05:17 40.63049 -3.79697 13025 ft 340 kts 242°
2026-04-19 05:17 40.61955 -3.82419 13658 ft 344 kts 242°
2026-04-19 05:17 40.60853 -3.85161 14307 ft 348 kts 242°
2026-04-19 05:18 40.59737 -3.87936 14998 ft 352 kts 242°
2026-04-19 05:18 40.58595 -3.90775 15569 ft 355 kts 242°
2026-04-19 05:18 40.57448 -3.93621 16197 ft 359 kts 242°
2026-04-19 05:18 40.56294 -3.96484 16787 ft 363 kts 242°
2026-04-19 05:19 40.55118 -3.99395 17415 ft 366 kts 242°
2026-04-19 05:19 40.53944 -4.02301 18022 ft 370 kts 242°
2026-04-19 05:19 40.52744 -4.05268 18635 ft 373 kts 242°
2026-04-19 05:19 40.51543 -4.08233 19241 ft 376 kts 242°
2026-04-19 05:20 40.50338 -4.11206 19827 ft 379 kts 243°
2026-04-19 05:20 40.49115 -4.14219 20405 ft 382 kts 243°
2026-04-19 05:20 40.47867 -4.17289 20968 ft 386 kts 243°
2026-04-19 05:20 40.46635 -4.20320 21493 ft 389 kts 243°
2026-04-19 05:21 40.45347 -4.23485 22017 ft 393 kts 243°
2026-04-19 05:21 40.44061 -4.26642 22528 ft 396 kts 243°
2026-04-19 05:21 40.42786 -4.29768 23031 ft 399 kts 243°
2026-04-19 05:21 40.41494 -4.32936 23513 ft 402 kts 243°
2026-04-19 05:22 40.40175 -4.36164 23999 ft 405 kts 243°
2026-04-19 05:22 40.38873 -4.39344 24499 ft 407 kts 243°
2026-04-19 05:22 40.37534 -4.42615 25004 ft 409 kts 243°
2026-04-19 05:22 40.36201 -4.45868 25462 ft 412 kts 243°
2026-04-19 05:23 40.34822 -4.49226 25910 ft 414 kts 243°
2026-04-19 05:23 40.33456 -4.52553 26353 ft 417 kts 242°
2026-04-19 05:23 40.32072 -4.55919 26774 ft 419 kts 242°
2026-04-19 05:23 40.30709 -4.59228 27182 ft 421 kts 242°
2026-04-19 05:24 40.29313 -4.62614 27600 ft 423 kts 242°
2026-04-19 05:24 40.27913 -4.66007 27997 ft 426 kts 241°
2026-04-19 05:24 40.26512 -4.69395 28384 ft 428 kts 241°
2026-04-19 05:24 40.25096 -4.72818 28752 ft 430 kts 241°
2026-04-19 05:25 40.23689 -4.76216 29127 ft 432 kts 241°
2026-04-19 05:25 40.22251 -4.79682 29497 ft 434 kts 241°
2026-04-19 05:25 40.20829 -4.83107 29877 ft 436 kts 241°
2026-04-19 05:25 40.19392 -4.86564 30208 ft 438 kts 241°
2026-04-19 05:26 40.17939 -4.90057 30530 ft 440 kts 241°
2026-04-19 05:26 40.16480 -4.93558 30863 ft 442 kts 241°
2026-04-19 05:26 40.15013 -4.97074 31186 ft 444 kts 241°
2026-04-19 05:26 40.13550 -5.00574 31481 ft 446 kts 241°
2026-04-19 05:27 40.12072 -5.04107 31805 ft 447 kts 241°
2026-04-19 05:27 40.10598 -5.07627 32184 ft 447 kts 241°
2026-04-19 05:27 40.09152 -5.11080 32620 ft 445 kts 241°
2026-04-19 05:27 40.07678 -5.14593 33046 ft 444 kts 242°
2026-04-19 05:28 40.06225 -5.18054 33447 ft 443 kts 242°
2026-04-19 05:28 40.04778 -5.21496 33840 ft 442 kts 242°
2026-04-19 05:28 40.03334 -5.24924 34235 ft 440 kts 242°
2026-04-19 05:28 40.01876 -5.28385 34625 ft 439 kts 242°
2026-04-19 05:29 40.00444 -5.31779 35017 ft 437 kts 242°
2026-04-19 05:29 39.98995 -5.35211 35432 ft 435 kts 242°
2026-04-19 05:29 39.97573 -5.38574 35845 ft 433 kts 242°
2026-04-19 05:29 39.96142 -5.41954 36235 ft 431 kts 242°
2026-04-19 05:30 39.94717 -5.45318 36557 ft 430 kts 242°
2026-04-19 05:30 39.93303 -5.48651 36804 ft 430 kts 242°
2026-04-19 05:30 39.91880 -5.52004 37040 ft 431 kts 242°
2026-04-19 05:30 39.90453 -5.55363 37297 ft 431 kts 242°
2026-04-19 05:31 39.89029 -5.58708 37518 ft 431 kts 243°
2026-04-19 05:31 39.87593 -5.62082 37733 ft 431 kts 243°
2026-04-19 05:31 39.86165 -5.65433 37918 ft 432 kts 242°
2026-04-19 05:32 39.83260 -5.72236 37939 ft 433 kts 242°
2026-04-19 05:32 39.80368 -5.78993 37937 ft 433 kts 242°
2026-04-19 05:33 39.77477 -5.85729 37931 ft 433 kts 242°
2026-04-19 05:33 39.74584 -5.92444 37934 ft 433 kts 242°
2026-04-19 05:34 39.71670 -5.99199 37933 ft 433 kts 242°
2026-04-19 05:34 39.68739 -6.05987 37942 ft 433 kts 242°
2026-04-19 05:35 39.65801 -6.12772 37936 ft 433 kts 242°
2026-04-19 05:35 39.62900 -6.19462 37933 ft 433 kts 242°
2026-04-19 05:36 39.59971 -6.26199 37935 ft 432 kts 242°
2026-04-19 05:36 39.57035 -6.32943 37938 ft 432 kts 242°
2026-04-19 05:37 39.54099 -6.39668 37937 ft 432 kts 242°
2026-04-19 05:37 39.51318 -6.46390 37930 ft 432 kts 245°
2026-04-19 05:38 39.48692 -6.53266 37927 ft 432 kts 245°
2026-04-19 05:38 39.46082 -6.60082 37926 ft 431 kts 245°
2026-04-19 05:39 39.43445 -6.66948 37929 ft 432 kts 244°
2026-04-19 05:39 39.40794 -6.73831 37927 ft 431 kts 244°
2026-04-19 05:40 39.38168 -6.80638 37916 ft 431 kts 244°
2026-04-19 05:40 39.35552 -6.87399 37926 ft 431 kts 244°
2026-04-19 05:41 39.32912 -6.94208 37922 ft 431 kts 244°
2026-04-19 05:41 39.30258 -7.01040 37925 ft 432 kts 244°
2026-04-19 05:42 39.27587 -7.07897 37930 ft 431 kts 244°
2026-04-19 05:42 39.24786 -7.14570 37929 ft 431 kts 239°
2026-04-19 05:43 39.21284 -7.20763 37937 ft 433 kts 231°
2026-04-19 05:43 39.17147 -7.26234 37934 ft 435 kts 223°
2026-04-19 05:44 39.12474 -7.30905 37924 ft 437 kts 217°
2026-04-19 05:44 39.07587 -7.35318 37963 ft 439 kts 217°
2026-04-19 05:44 39.05184 -7.37485 38198 ft 438 kts 217°
2026-04-19 05:45 39.02761 -7.39668 38525 ft 436 kts 217°
2026-04-19 05:45 39.00394 -7.41800 38818 ft 434 kts 217°
2026-04-19 05:45 38.98042 -7.43919 38913 ft 435 kts 217°
2026-04-19 05:46 38.93269 -7.48217 38913 ft 435 kts 217°
2026-04-19 05:46 38.88503 -7.52503 38916 ft 434 kts 217°
2026-04-19 05:47 38.83743 -7.56777 38915 ft 435 kts 217°
2026-04-19 05:47 38.78977 -7.61049 38908 ft 435 kts 217°
2026-04-19 05:48 38.74222 -7.65304 38917 ft 435 kts 217°
2026-04-19 05:48 38.69504 -7.69520 38920 ft 435 kts 217°
2026-04-19 05:49 38.64791 -7.73724 38913 ft 435 kts 217°
2026-04-19 05:49 38.60075 -7.77925 38915 ft 435 kts 217°
2026-04-19 05:50 38.55392 -7.82088 38912 ft 434 kts 217°
2026-04-19 05:50 38.50714 -7.86239 38909 ft 434 kts 217°
2026-04-19 05:51 38.46043 -7.90378 38911 ft 434 kts 217°
2026-04-19 05:51 38.41353 -7.94529 38905 ft 434 kts 217°
2026-04-19 05:52 38.36671 -7.98664 38906 ft 434 kts 217°
2026-04-19 05:52 38.31965 -8.02814 38909 ft 434 kts 217°
2026-04-19 05:53 38.27285 -8.06937 38907 ft 434 kts 217°
2026-04-19 05:53 38.22596 -8.11061 38908 ft 434 kts 216°
2026-04-19 05:54 38.17898 -8.15184 38908 ft 434 kts 216°
2026-04-19 05:54 38.13174 -8.19323 38904 ft 434 kts 216°
2026-04-19 05:55 38.08495 -8.23416 38905 ft 434 kts 216°
2026-04-19 05:55 38.03765 -8.27548 38903 ft 434 kts 216°
2026-04-19 05:56 37.98787 -8.31888 38902 ft 434 kts 216°
2026-04-19 05:56 37.93759 -8.36265 38901 ft 433 kts 217°
2026-04-19 05:57 37.88803 -8.40573 38900 ft 433 kts 216°
2026-04-19 05:57 37.83911 -8.44820 38898 ft 433 kts 216°
2026-04-19 05:58 37.78986 -8.49088 38896 ft 433 kts 216°
2026-04-19 05:58 37.74074 -8.53336 38894 ft 433 kts 216°
2026-04-19 05:59 37.69191 -8.57553 38893 ft 432 kts 216°
2026-04-19 05:59 37.64250 -8.61811 38892 ft 433 kts 216°
2026-04-19 06:00 37.59238 -8.66125 38891 ft 434 kts 216°
2026-04-19 06:00 37.54224 -8.70433 38891 ft 434 kts 216°
2026-04-19 06:01 37.49237 -8.74711 38889 ft 434 kts 215°
2026-04-19 06:01 37.44292 -8.78945 38889 ft 434 kts 215°
2026-04-19 06:02 37.39291 -8.83222 38889 ft 435 kts 215°
2026-04-19 06:02 37.34501 -8.87311 38887 ft 434 kts 215°
2026-04-19 06:03 37.29635 -8.91458 38994 ft 433 kts 215°
2026-04-19 06:03 37.24698 -8.95658 39012 ft 433 kts 215°
2026-04-19 06:04 37.19790 -8.99828 39014 ft 432 kts 215°
2026-04-19 06:04 37.14793 -9.04067 39014 ft 432 kts 215°
2026-04-19 06:05 37.09853 -9.08251 39015 ft 433 kts 215°
2026-04-19 06:05 37.04893 -9.12444 39014 ft 432 kts 215°
2026-04-19 06:06 36.99936 -9.16629 39014 ft 433 kts 215°
2026-04-19 06:06 36.94974 -9.20811 39006 ft 434 kts 215°
2026-04-19 06:07 36.89968 -9.25023 39002 ft 435 kts 215°
2026-04-19 06:07 36.84938 -9.29249 39000 ft 435 kts 215°
2026-04-19 06:08 36.79959 -9.33424 38996 ft 434 kts 215°
2026-04-19 06:08 36.74947 -9.37621 39000 ft 433 kts 215°
2026-04-19 06:09 36.70031 -9.41732 39001 ft 433 kts 215°
2026-04-19 06:09 36.65084 -9.45861 39000 ft 433 kts 215°
2026-04-19 06:10 36.60097 -9.50017 39001 ft 432 kts 215°
2026-04-19 06:10 36.55132 -9.54149 39000 ft 432 kts 215°
2026-04-19 06:11 36.50131 -9.58305 39000 ft 432 kts 215°
2026-04-19 06:11 36.45124 -9.62457 39001 ft 433 kts 215°
2026-04-19 06:12 36.37614 -9.68676 39003 ft 433 kts 214°
2026-04-19 06:12 36.32632 -9.72791 39003 ft 432 kts 214°
2026-04-19 06:13 36.27615 -9.76931 39000 ft 432 kts 214°
2026-04-19 06:13 36.22622 -9.81045 39004 ft 432 kts 214°
2026-04-19 06:14 36.17648 -9.85137 38998 ft 431 kts 214°
2026-04-19 06:14 36.12661 -9.89233 39000 ft 431 kts 214°
2026-04-19 06:15 36.07697 -9.93304 38995 ft 431 kts 214°
2026-04-19 06:15 36.02659 -9.97431 38997 ft 432 kts 214°
2026-04-19 06:16 35.97733 -10.01461 38995 ft 433 kts 214°
2026-04-19 06:16 35.92932 -10.05800 38993 ft 432 kts 217°
2026-04-19 06:17 35.88187 -10.10205 38996 ft 431 kts 217°
2026-04-19 06:17 35.83756 -10.14316 38994 ft 432 kts 217°
2026-04-19 06:18 35.78960 -10.18759 38993 ft 431 kts 217°
2026-04-19 06:18 35.74182 -10.23182 38993 ft 431 kts 217°
2026-04-19 06:19 35.69377 -10.27621 38997 ft 431 kts 217°
2026-04-19 06:19 35.64661 -10.31971 38998 ft 431 kts 217°
2026-04-19 06:20 35.60072 -10.36198 38998 ft 431 kts 217°
2026-04-19 06:20 35.55355 -10.40537 38998 ft 432 kts 217°
2026-04-19 06:21 35.50621 -10.44883 38997 ft 432 kts 217°
2026-04-19 06:21 35.45828 -10.49278 38995 ft 432 kts 217°
2026-04-19 06:22 35.41014 -10.53687 39002 ft 431 kts 217°
2026-04-19 06:22 35.36190 -10.58098 38997 ft 432 kts 217°
2026-04-19 06:23 35.31410 -10.62461 39000 ft 432 kts 217°
2026-04-19 06:23 35.26586 -10.66857 38999 ft 431 kts 216°
2026-04-19 06:24 35.21794 -10.71216 38999 ft 431 kts 216°
2026-04-19 06:24 35.16997 -10.75577 38999 ft 430 kts 216°
2026-04-19 06:25 35.12173 -10.79954 38996 ft 430 kts 216°
2026-04-19 06:25 35.07405 -10.84273 38998 ft 430 kts 216°
2026-04-19 06:26 35.02604 -10.88617 38996 ft 430 kts 216°
2026-04-19 06:26 35.00182 -10.90807 38858 ft 430 kts 216°
2026-04-19 06:26 34.97814 -10.92946 38953 ft 431 kts 216°
2026-04-19 06:27 34.92987 -10.97298 38978 ft 431 kts 216°
2026-04-19 06:27 34.88152 -11.01652 38997 ft 431 kts 216°
2026-04-19 06:28 34.83665 -11.05689 38990 ft 431 kts 216°
2026-04-19 06:28 34.79328 -11.09584 38991 ft 431 kts 216°
2026-04-19 06:29 34.74750 -11.13693 39019 ft 431 kts 216°
2026-04-19 06:29 34.70290 -11.17689 38998 ft 431 kts 216°
2026-04-19 06:30 34.65606 -11.21881 38996 ft 430 kts 216°
2026-04-19 06:30 34.61038 -11.25964 38995 ft 431 kts 216°
2026-04-19 06:31 34.56463 -11.30067 38995 ft 431 kts 216°
2026-04-19 06:31 34.51967 -11.34097 38996 ft 431 kts 216°
2026-04-19 06:32 34.47490 -11.38105 38998 ft 432 kts 216°
2026-04-19 06:32 34.43014 -11.42108 38996 ft 432 kts 216°
2026-04-19 06:33 34.38469 -11.46168 38997 ft 432 kts 216°
2026-04-19 06:33 34.33730 -11.50393 38994 ft 432 kts 216°
2026-04-19 06:34 34.29255 -11.54379 38997 ft 432 kts 216°
2026-04-19 06:34 34.24681 -11.58447 38997 ft 431 kts 216°
2026-04-19 06:35 34.20016 -11.62589 38996 ft 432 kts 216°
2026-04-19 06:35 34.15387 -11.66695 38997 ft 431 kts 215°
2026-04-19 06:36 34.13158 -11.68669 38858 ft 431 kts 216°
2026-04-19 06:36 34.10965 -11.70611 38953 ft 432 kts 216°
2026-04-19 06:36 34.06488 -11.74572 38994 ft 432 kts 215°
2026-04-19 06:37 34.02064 -11.78480 38998 ft 433 kts 215°
2026-04-19 06:37 33.97618 -11.82401 38999 ft 432 kts 215°
2026-04-19 06:38 33.93048 -11.86426 38993 ft 433 kts 215°
2026-04-19 06:38 33.88259 -11.90639 38998 ft 433 kts 215°
2026-04-19 06:39 33.83441 -11.94871 38991 ft 433 kts 215°
2026-04-19 06:39 33.78556 -11.99156 38977 ft 433 kts 215°
2026-04-19 06:40 33.73827 -12.03297 38975 ft 432 kts 215°
2026-04-19 06:40 33.69089 -12.07443 38971 ft 432 kts 215°
2026-04-19 06:41 33.64534 -12.11422 38972 ft 432 kts 215°
2026-04-19 06:41 33.59856 -12.15503 38976 ft 432 kts 215°
2026-04-19 06:42 33.55227 -12.19536 38978 ft 432 kts 215°
2026-04-19 06:42 33.50521 -12.23630 38978 ft 432 kts 215°
2026-04-19 06:43 33.45665 -12.27848 38979 ft 432 kts 215°
2026-04-19 06:43 33.40838 -12.32035 38979 ft 432 kts 215°
2026-04-19 06:44 33.36013 -12.36216 38978 ft 432 kts 215°
2026-04-19 06:44 33.31104 -12.40461 38978 ft 432 kts 215°
2026-04-19 06:45 33.26233 -12.44670 38979 ft 432 kts 215°
2026-04-19 06:45 33.21362 -12.48872 38978 ft 433 kts 215°
2026-04-19 06:46 33.16494 -12.53066 38980 ft 433 kts 215°
2026-04-19 06:46 33.11585 -12.57291 38976 ft 433 kts 215°
2026-04-19 06:47 33.06719 -12.61472 38976 ft 433 kts 215°
2026-04-19 06:47 33.01828 -12.65669 38975 ft 433 kts 214°
2026-04-19 06:48 32.96950 -12.69849 38972 ft 433 kts 214°
2026-04-19 06:48 32.92088 -12.74011 38970 ft 432 kts 214°
2026-04-19 06:49 32.87193 -12.78193 38971 ft 433 kts 214°
2026-04-19 06:49 32.82307 -12.82354 38970 ft 433 kts 214°
2026-04-19 06:50 32.77370 -12.86531 38969 ft 434 kts 214°
2026-04-19 06:50 32.72477 -12.90669 38970 ft 435 kts 214°
2026-04-19 06:51 32.67574 -12.94814 38966 ft 434 kts 214°
2026-04-19 06:51 32.62631 -12.98987 38965 ft 435 kts 214°
2026-04-19 06:52 32.57728 -13.03120 38967 ft 434 kts 214°
2026-04-19 06:52 32.52800 -13.07270 38958 ft 435 kts 214°
2026-04-19 06:53 32.47845 -13.11436 38960 ft 435 kts 214°
2026-04-19 06:53 32.45393 -13.13495 39076 ft 435 kts 214°
2026-04-19 06:53 32.42939 -13.15555 38997 ft 435 kts 214°
2026-04-19 06:54 32.37983 -13.19712 38976 ft 436 kts 214°
2026-04-19 06:54 32.33039 -13.23854 38972 ft 436 kts 214°
2026-04-19 06:55 32.28100 -13.27981 38976 ft 436 kts 214°
2026-04-19 06:55 32.23150 -13.32115 38960 ft 436 kts 214°
2026-04-19 06:56 32.18207 -13.36238 38966 ft 436 kts 214°
2026-04-19 06:56 32.13234 -13.40380 38966 ft 437 kts 214°
2026-04-19 06:57 32.08282 -13.44498 38963 ft 438 kts 214°
2026-04-19 06:57 32.03302 -13.48635 38964 ft 437 kts 214°
2026-04-19 06:58 31.98334 -13.52755 38949 ft 439 kts 214°
2026-04-19 06:58 31.93369 -13.56869 38932 ft 438 kts 214°
2026-04-19 06:59 31.88394 -13.60985 38940 ft 438 kts 214°
2026-04-19 06:59 31.83401 -13.65109 38936 ft 438 kts 214°
2026-04-19 07:00 31.78398 -13.69236 38937 ft 439 kts 214°
2026-04-19 07:00 31.73422 -13.73336 38913 ft 438 kts 214°
2026-04-19 07:01 31.68425 -13.77450 38930 ft 438 kts 214°
2026-04-19 07:01 31.63435 -13.81550 38918 ft 438 kts 214°
2026-04-19 07:02 31.58475 -13.85622 38916 ft 438 kts 214°
2026-04-19 07:02 31.53475 -13.89720 38933 ft 439 kts 214°
2026-04-19 07:03 31.48449 -13.93833 38896 ft 440 kts 214°
2026-04-19 07:03 31.43457 -13.97916 38922 ft 439 kts 214°
2026-04-19 07:04 31.38437 -14.02015 38929 ft 439 kts 214°
2026-04-19 07:04 31.33420 -14.06109 38926 ft 439 kts 214°
2026-04-19 07:05 31.28418 -14.10187 38915 ft 439 kts 214°
2026-04-19 07:05 31.23431 -14.14271 38916 ft 440 kts 215°
2026-04-19 07:06 31.18412 -14.18377 38905 ft 439 kts 215°
2026-04-19 07:06 31.13423 -14.22455 38911 ft 439 kts 215°
2026-04-19 07:07 31.08415 -14.26542 38915 ft 439 kts 215°
2026-04-19 07:07 31.03418 -14.30616 38902 ft 438 kts 215°
2026-04-19 07:08 30.98432 -14.34676 38914 ft 438 kts 215°
2026-04-19 07:08 30.93310 -14.38562 38912 ft 438 kts 211°
2026-04-19 07:09 30.87895 -14.41814 38914 ft 438 kts 205°
2026-04-19 07:09 30.82244 -14.44384 38907 ft 439 kts 199°
2026-04-19 07:10 30.76413 -14.46541 38908 ft 439 kts 199°
2026-04-19 07:10 30.70581 -14.48691 38904 ft 439 kts 199°
2026-04-19 07:11 30.64765 -14.50831 38904 ft 439 kts 199°
2026-04-19 07:11 30.58919 -14.52980 38903 ft 439 kts 199°
2026-04-19 07:12 30.53131 -14.55106 38898 ft 438 kts 199°
2026-04-19 07:12 30.47341 -14.57229 38902 ft 437 kts 199°
2026-04-19 07:13 30.41506 -14.59367 38898 ft 438 kts 199°
2026-04-19 07:13 30.35704 -14.61489 38896 ft 439 kts 199°
2026-04-19 07:14 30.29887 -14.63614 38893 ft 438 kts 199°
2026-04-19 07:14 30.24078 -14.65732 38890 ft 439 kts 199°
2026-04-19 07:15 30.18236 -14.67861 38883 ft 439 kts 199°
2026-04-19 07:16 30.09508 -14.71038 38879 ft 438 kts 199°
2026-04-19 07:16 30.03690 -14.73152 38878 ft 438 kts 199°
2026-04-19 07:17 29.97883 -14.75258 38880 ft 438 kts 199°
2026-04-19 07:17 29.92088 -14.77359 38883 ft 439 kts 199°
2026-04-19 07:18 29.86225 -14.79481 38883 ft 439 kts 199°
2026-04-19 07:18 29.80425 -14.81578 38886 ft 439 kts 199°
2026-04-19 07:19 29.74568 -14.83692 38892 ft 440 kts 199°
2026-04-19 07:19 29.68742 -14.85793 38883 ft 440 kts 199°
2026-04-19 07:20 29.62875 -14.87906 38884 ft 440 kts 200°
2026-04-19 07:20 29.57089 -14.89987 38883 ft 439 kts 200°
2026-04-19 07:21 29.51667 -14.91936 38879 ft 439 kts 200°
2026-04-19 07:21 29.46232 -14.93889 38874 ft 439 kts 200°
2026-04-19 07:22 29.40835 -14.95823 38867 ft 440 kts 200°
2026-04-19 07:22 29.35406 -14.97768 38865 ft 440 kts 200°
2026-04-19 07:23 29.29960 -14.99715 38861 ft 442 kts 200°
2026-04-19 07:23 29.24684 -15.01602 38861 ft 441 kts 200°
2026-04-19 07:24 29.18908 -15.03664 38856 ft 443 kts 200°
2026-04-19 07:24 29.13036 -15.05757 38853 ft 442 kts 200°
2026-04-19 07:25 29.07182 -15.07842 38852 ft 442 kts 200°
2026-04-19 07:25 29.01324 -15.09923 38845 ft 441 kts 200°
2026-04-19 07:26 28.95442 -15.12014 38848 ft 442 kts 200°
2026-04-19 07:26 28.89575 -15.14095 38842 ft 442 kts 200°
2026-04-19 07:27 28.83683 -15.16184 38843 ft 443 kts 201°
2026-04-19 07:27 28.77758 -15.18280 38842 ft 444 kts 201°
2026-04-19 07:28 28.71853 -15.20368 38842 ft 444 kts 201°
2026-04-19 07:28 28.65988 -15.22439 38842 ft 444 kts 201°
2026-04-19 07:29 28.60065 -15.24529 38840 ft 444 kts 201°
2026-04-19 07:29 28.54175 -15.26604 38840 ft 444 kts 201°
2026-04-19 07:30 28.48259 -15.28688 38844 ft 444 kts 201°
2026-04-19 07:30 28.42384 -15.30752 38838 ft 444 kts 201°
2026-04-19 07:31 28.36538 -15.32806 38834 ft 445 kts 201°
2026-04-19 07:31 28.30626 -15.34880 38839 ft 445 kts 201°
2026-04-19 07:32 28.24718 -15.36952 38885 ft 445 kts 201°
2026-04-19 07:32 28.18814 -15.39019 38853 ft 445 kts 202°
2026-04-19 07:33 28.12907 -15.41142 38857 ft 444 kts 204°
2026-04-19 07:33 28.07294 -15.43787 38874 ft 440 kts 210°
2026-04-19 07:34 28.02321 -15.46856 38885 ft 437 kts 216°
2026-04-19 07:34 27.97615 -15.50299 38899 ft 435 kts 217°
2026-04-19 07:35 27.92992 -15.53714 39158 ft 437 kts 217°
2026-04-19 07:35 27.90730 -15.55379 39409 ft 435 kts 217°
2026-04-19 07:35 27.88287 -15.57175 39663 ft 434 kts 218°
2026-04-19 07:35 27.85827 -15.58983 39859 ft 434 kts 218°
2026-04-19 07:36 27.83355 -15.60801 40018 ft 434 kts 218°
2026-04-19 07:36 27.80843 -15.62647 40179 ft 433 kts 218°
2026-04-19 07:36 27.78349 -15.64478 40328 ft 434 kts 218°
2026-04-19 07:36 27.75877 -15.66290 40458 ft 434 kts 217°
2026-04-19 07:37 27.73438 -15.68078 40579 ft 435 kts 217°
2026-04-19 07:37 27.70912 -15.69926 40719 ft 435 kts 217°
2026-04-19 07:37 27.68352 -15.71795 40828 ft 436 kts 217°
2026-04-19 07:38 27.63285 -15.75492 40835 ft 437 kts 217°
2026-04-19 07:38 27.58186 -15.79212 40842 ft 437 kts 218°
2026-04-19 07:39 27.53074 -15.82941 40844 ft 437 kts 217°
2026-04-19 07:39 27.47971 -15.86656 40841 ft 436 kts 218°
2026-04-19 07:40 27.42876 -15.90365 40841 ft 436 kts 217°
2026-04-19 07:40 27.37785 -15.94066 40844 ft 437 kts 218°
2026-04-19 07:41 27.32691 -15.97764 40847 ft 437 kts 218°
2026-04-19 07:41 27.27572 -16.01477 40845 ft 437 kts 218°
2026-04-19 07:42 27.22477 -16.05168 40841 ft 438 kts 218°
2026-04-19 07:42 27.17350 -16.08879 40842 ft 437 kts 218°
2026-04-19 07:43 27.12257 -16.12563 40844 ft 437 kts 218°
2026-04-19 07:43 27.07117 -16.16274 40850 ft 436 kts 218°
2026-04-19 07:44 27.02035 -16.19941 40848 ft 436 kts 218°
2026-04-19 07:44 26.96938 -16.23618 40848 ft 437 kts 218°
2026-04-19 07:45 26.91821 -16.27304 40842 ft 438 kts 218°
2026-04-19 07:45 26.86667 -16.31003 40851 ft 438 kts 218°
2026-04-19 07:46 26.81550 -16.34663 40856 ft 437 kts 218°
2026-04-19 07:46 26.76423 -16.38329 40832 ft 436 kts 218°
2026-04-19 07:47 26.71302 -16.41990 40830 ft 437 kts 218°
2026-04-19 07:47 26.66174 -16.45654 40849 ft 438 kts 218°
2026-04-19 07:48 26.61036 -16.49320 40854 ft 438 kts 218°
2026-04-19 07:48 26.55906 -16.52976 40846 ft 438 kts 218°
2026-04-19 07:49 26.50789 -16.56621 40842 ft 438 kts 218°
2026-04-19 07:49 26.45656 -16.60273 40839 ft 437 kts 218°
2026-04-19 07:50 26.40512 -16.63928 40844 ft 437 kts 218°
2026-04-19 07:50 26.35412 -16.67549 40851 ft 437 kts 218°
2026-04-19 07:51 26.30277 -16.71192 40857 ft 438 kts 218°
2026-04-19 07:51 26.25120 -16.74849 40859 ft 438 kts 218°
2026-04-19 07:52 26.19987 -16.78481 40861 ft 438 kts 218°
2026-04-19 07:52 26.14839 -16.82121 40854 ft 438 kts 218°
2026-04-19 07:53 26.09712 -16.85745 40852 ft 438 kts 218°
2026-04-19 07:53 26.04555 -16.89393 40847 ft 438 kts 218°
2026-04-19 07:54 25.99398 -16.93036 40853 ft 438 kts 218°
2026-04-19 07:54 25.94253 -16.96668 40851 ft 439 kts 218°
2026-04-19 07:55 25.89119 -17.00289 40849 ft 439 kts 218°
2026-04-19 07:55 25.84025 -17.03875 40851 ft 439 kts 219°
2026-04-19 07:56 25.79031 -17.07389 40851 ft 440 kts 219°
2026-04-19 07:56 25.73802 -17.11066 40849 ft 439 kts 219°
2026-04-19 07:57 25.68587 -17.14727 40849 ft 440 kts 219°
2026-04-19 07:57 25.63436 -17.18340 40847 ft 440 kts 219°
2026-04-19 07:58 25.58237 -17.21983 40846 ft 440 kts 219°
2026-04-19 07:58 25.53054 -17.25612 40855 ft 441 kts 219°
2026-04-19 07:59 25.47880 -17.29229 40853 ft 441 kts 219°
2026-04-19 07:59 25.42676 -17.32865 40850 ft 442 kts 219°
2026-04-19 08:00 25.37469 -17.36499 40853 ft 442 kts 219°
2026-04-19 08:00 25.32272 -17.40121 40857 ft 442 kts 219°
2026-04-19 08:01 25.27050 -17.43759 40856 ft 443 kts 219°
2026-04-19 08:01 25.21863 -17.47368 40859 ft 443 kts 219°
2026-04-19 08:02 25.16627 -17.51008 40863 ft 443 kts 219°
2026-04-19 08:02 25.11427 -17.54619 40860 ft 442 kts 219°
2026-04-19 08:03 25.06222 -17.58233 40861 ft 443 kts 219°
2026-04-19 08:03 25.00987 -17.61862 40859 ft 443 kts 219°
2026-04-19 08:04 24.95748 -17.65479 40869 ft 443 kts 218°
2026-04-19 08:04 24.90527 -17.69078 40868 ft 444 kts 218°
2026-04-19 08:05 24.85296 -17.72683 40867 ft 443 kts 218°
2026-04-19 08:05 24.80064 -17.76288 40869 ft 443 kts 218°
2026-04-19 08:06 24.74820 -17.79898 40874 ft 444 kts 218°
2026-04-19 08:06 24.69589 -17.83496 40871 ft 444 kts 218°
2026-04-19 08:07 24.64371 -17.87080 40875 ft 444 kts 218°
2026-04-19 08:07 24.59118 -17.90686 40873 ft 443 kts 218°
2026-04-19 08:08 24.53871 -17.94282 40878 ft 444 kts 219°
2026-04-19 08:08 24.48632 -17.97871 40880 ft 443 kts 218°
2026-04-19 08:09 24.43409 -18.01445 40879 ft 443 kts 219°
2026-04-19 08:09 24.38174 -18.05024 40875 ft 443 kts 219°
2026-04-19 08:10 24.32938 -18.08600 40873 ft 443 kts 219°
2026-04-19 08:10 24.27707 -18.12170 40886 ft 442 kts 219°
2026-04-19 08:11 24.22502 -18.15717 40890 ft 442 kts 219°
2026-04-19 08:11 24.17280 -18.19274 40879 ft 443 kts 219°
2026-04-19 08:12 24.12050 -18.22833 40874 ft 442 kts 219°
2026-04-19 08:12 24.06834 -18.26377 40875 ft 442 kts 219°
2026-04-19 08:13 24.01585 -18.29941 40873 ft 442 kts 219°
2026-04-19 08:13 23.96374 -18.33476 40869 ft 442 kts 219°
2026-04-19 08:14 23.91128 -18.37031 40870 ft 442 kts 219°
2026-04-19 08:14 23.83291 -18.42335 40881 ft 442 kts 219°
2026-04-19 08:15 23.78070 -18.45864 40886 ft 441 kts 219°
2026-04-19 08:15 23.72847 -18.49390 40888 ft 441 kts 219°
2026-04-19 08:16 23.67619 -18.52918 40882 ft 441 kts 220°
2026-04-19 08:16 23.62387 -18.56444 40884 ft 441 kts 220°
2026-04-19 08:17 23.57151 -18.59971 40881 ft 440 kts 220°
2026-04-19 08:17 23.51954 -18.63469 40892 ft 440 kts 220°
2026-04-19 08:18 23.46747 -18.66967 40885 ft 440 kts 220°
2026-04-19 08:18 23.41505 -18.70488 40883 ft 440 kts 220°
2026-04-19 08:19 23.36306 -18.73977 40885 ft 440 kts 220°
2026-04-19 08:19 23.31104 -18.77464 40880 ft 439 kts 220°
2026-04-19 08:20 23.25857 -18.80980 40891 ft 440 kts 220°
2026-04-19 08:20 23.20654 -18.84461 40893 ft 440 kts 220°
2026-04-19 08:21 23.15426 -18.87955 40897 ft 439 kts 220°
2026-04-19 08:21 23.10211 -18.91437 40892 ft 439 kts 220°
2026-04-19 08:22 23.05015 -18.94903 40892 ft 440 kts 221°
2026-04-19 08:22 22.99771 -18.98398 40903 ft 439 kts 221°
2026-04-19 08:23 22.94571 -19.01863 40902 ft 440 kts 221°
2026-04-19 08:23 22.89354 -19.05335 40901 ft 439 kts 221°
2026-04-19 08:24 22.84143 -19.08799 40899 ft 439 kts 221°
2026-04-19 08:24 22.78892 -19.12285 40907 ft 438 kts 221°
2026-04-19 08:25 22.73708 -19.15725 40903 ft 438 kts 221°
2026-04-19 08:25 22.68473 -19.19196 40890 ft 438 kts 221°
2026-04-19 08:26 22.63262 -19.22648 40886 ft 438 kts 222°
2026-04-19 08:26 22.58056 -19.26093 40891 ft 436 kts 221°
2026-04-19 08:27 22.52829 -19.29550 40886 ft 438 kts 222°
2026-04-19 08:27 22.47633 -19.32984 40887 ft 437 kts 222°
2026-04-19 08:28 22.42420 -19.36423 40890 ft 436 kts 222°
2026-04-19 08:28 22.37196 -19.39868 40894 ft 436 kts 223°
2026-04-19 08:29 22.32027 -19.43275 40896 ft 437 kts 223°
2026-04-19 08:29 22.26823 -19.46704 40904 ft 436 kts 223°
2026-04-19 08:30 22.21655 -19.50103 40909 ft 436 kts 223°
2026-04-19 08:30 22.16453 -19.53525 40909 ft 436 kts 223°
2026-04-19 08:31 22.11257 -19.56940 40918 ft 436 kts 223°
2026-04-19 08:31 22.06086 -19.60327 40908 ft 434 kts 223°
2026-04-19 08:32 22.00936 -19.63693 40924 ft 433 kts 224°
2026-04-19 08:32 21.95762 -19.67081 40922 ft 435 kts 223°
2026-04-19 08:33 21.90586 -19.70461 40916 ft 434 kts 224°
2026-04-19 08:33 21.85409 -19.73847 40908 ft 434 kts 224°
2026-04-19 08:34 21.80251 -19.77212 40903 ft 434 kts 224°
2026-04-19 08:34 21.75081 -19.80589 40906 ft 434 kts 224°
2026-04-19 08:35 21.69942 -19.83937 40903 ft 432 kts 224°
2026-04-19 08:35 21.64748 -19.87321 40904 ft 434 kts 224°
2026-04-19 08:36 21.59579 -19.90688 40907 ft 434 kts 224°
2026-04-19 08:36 21.54428 -19.94033 40904 ft 431 kts 224°
2026-04-19 08:37 21.49297 -19.97369 40909 ft 434 kts 224°
2026-04-19 08:37 21.44132 -20.00721 40905 ft 431 kts 225°
2026-04-19 08:38 21.38969 -20.04072 40907 ft 433 kts 225°
2026-04-19 08:38 21.33830 -20.07400 40910 ft 433 kts 225°
2026-04-19 08:39 21.28654 -20.10754 40912 ft 431 kts 225°
2026-04-19 08:39 21.23526 -20.14072 40906 ft 430 kts 225°
2026-04-19 08:40 21.18392 -20.17391 40908 ft 432 kts 225°
2026-04-19 08:40 21.13240 -20.20720 40908 ft 431 kts 225°
2026-04-19 08:41 21.08124 -20.24023 40909 ft 431 kts 225°
2026-04-19 08:41 21.02955 -20.27357 40905 ft 432 kts 225°
2026-04-19 08:42 20.97821 -20.30670 40905 ft 432 kts 225°
2026-04-19 08:42 20.92661 -20.33987 40909 ft 431 kts 225°
2026-04-19 08:43 20.87511 -20.37303 40905 ft 434 kts 225°
2026-04-19 08:43 20.82347 -20.40622 40909 ft 433 kts 225°
2026-04-19 08:44 20.77168 -20.43948 40910 ft 432 kts 225°
2026-04-19 08:44 20.72035 -20.47244 40913 ft 431 kts 225°
2026-04-19 08:45 20.66876 -20.50553 40915 ft 433 kts 225°
2026-04-19 08:45 20.61712 -20.53866 40917 ft 434 kts 225°
2026-04-19 08:46 20.56557 -20.57163 40922 ft 433 kts 225°
2026-04-19 08:46 20.51370 -20.60486 40922 ft 432 kts 225°
2026-04-19 08:47 20.46194 -20.63793 40927 ft 431 kts 225°
2026-04-19 08:47 20.41076 -20.67071 40932 ft 432 kts 224°
2026-04-19 08:48 20.35809 -20.70332 40925 ft 439 kts 221°
2026-04-19 08:48 20.30334 -20.73263 40927 ft 442 kts 220°
2026-04-19 08:49 20.24849 -20.76175 40930 ft 441 kts 220°
2026-04-19 08:49 20.19346 -20.79089 40928 ft 441 kts 220°
2026-04-19 08:50 20.13800 -20.82037 40928 ft 444 kts 220°
2026-04-19 08:50 20.08266 -20.84970 40928 ft 444 kts 220°
2026-04-19 08:51 20.02777 -20.87873 40929 ft 443 kts 220°
2026-04-19 08:51 19.97248 -20.90799 40928 ft 443 kts 220°
2026-04-19 08:52 19.91730 -20.93719 40930 ft 444 kts 220°
2026-04-19 08:52 19.86155 -20.96666 40928 ft 444 kts 220°
2026-04-19 08:53 19.80650 -20.99568 40931 ft 443 kts 220°
2026-04-19 08:53 19.75022 -21.02538 40931 ft 442 kts 220°
2026-04-19 08:54 19.69510 -21.05443 40929 ft 442 kts 220°
2026-04-19 08:54 19.63973 -21.08361 40932 ft 444 kts 220°
2026-04-19 08:55 19.58458 -21.11264 40932 ft 441 kts 220°
2026-04-19 08:55 19.52960 -21.14154 40931 ft 441 kts 220°
2026-04-19 08:56 19.47428 -21.17063 40931 ft 441 kts 220°
2026-04-19 08:56 19.42005 -21.19911 40930 ft 442 kts 220°
2026-04-19 08:57 19.36770 -21.22657 40930 ft 440 kts 220°
2026-04-19 08:57 19.31560 -21.25388 40930 ft 439 kts 221°
2026-04-19 08:58 19.26474 -21.28054 40929 ft 440 kts 221°
2026-04-19 08:58 19.21450 -21.30685 40929 ft 439 kts 221°
2026-04-19 08:59 19.16343 -21.33360 40931 ft 438 kts 221°
2026-04-19 08:59 19.11296 -21.35999 40929 ft 440 kts 221°
2026-04-19 09:00 19.05802 -21.38870 40930 ft 440 kts 221°
2026-04-19 09:00 19.00289 -21.41750 40930 ft 442 kts 221°
2026-04-19 09:01 18.94764 -21.44632 40928 ft 439 kts 221°
2026-04-19 09:01 18.89276 -21.47493 40923 ft 440 kts 221°
2026-04-19 09:02 18.83753 -21.50371 40927 ft 440 kts 221°
2026-04-19 09:02 18.78241 -21.53239 40935 ft 440 kts 221°
2026-04-19 09:03 18.72786 -21.56074 40945 ft 438 kts 221°
2026-04-19 09:03 18.67310 -21.58924 40946 ft 437 kts 221°
2026-04-19 09:04 18.61825 -21.61775 40945 ft 439 kts 221°
2026-04-19 09:04 18.56337 -21.64624 40946 ft 438 kts 221°
2026-04-19 09:05 18.50872 -21.67458 40948 ft 438 kts 221°
2026-04-19 09:05 18.45390 -21.70303 40946 ft 439 kts 220°
2026-04-19 09:06 18.39893 -21.73150 40946 ft 440 kts 220°
2026-04-19 09:06 18.34388 -21.75999 40945 ft 440 kts 220°
2026-04-19 09:07 18.28896 -21.78840 40939 ft 441 kts 220°
2026-04-19 09:07 18.23351 -21.81707 40945 ft 443 kts 220°
2026-04-19 09:08 18.17840 -21.84553 40946 ft 441 kts 220°
2026-04-19 09:08 18.12337 -21.87390 40944 ft 441 kts 220°
2026-04-19 09:09 18.06775 -21.90262 40946 ft 443 kts 220°
2026-04-19 09:09 18.01269 -21.93099 40946 ft 442 kts 220°
2026-04-19 09:10 17.95710 -21.95963 40950 ft 442 kts 220°
2026-04-19 09:10 17.90182 -21.98807 40948 ft 443 kts 220°
2026-04-19 09:11 17.84643 -22.01656 40945 ft 442 kts 220°
2026-04-19 09:11 17.79102 -22.04505 40942 ft 442 kts 220°
2026-04-19 09:12 17.73587 -22.07335 40933 ft 441 kts 220°
2026-04-19 09:12 17.68055 -22.10177 40929 ft 443 kts 220°
2026-04-19 09:13 17.62525 -22.13016 40930 ft 443 kts 219°
2026-04-19 09:13 17.56960 -22.15866 40932 ft 444 kts 219°
2026-04-19 09:14 17.51455 -22.18685 40933 ft 443 kts 219°
2026-04-19 09:14 17.45917 -22.21520 40932 ft 443 kts 219°
2026-04-19 09:15 17.40377 -22.24354 40933 ft 443 kts 219°
2026-04-19 09:16 17.32047 -22.28612 40932 ft 443 kts 219°
2026-04-19 09:16 17.26534 -22.31428 40932 ft 442 kts 219°
2026-04-19 09:17 17.20970 -22.34269 40932 ft 444 kts 219°
2026-04-19 09:17 17.15396 -22.37108 40930 ft 444 kts 219°
2026-04-19 09:18 17.09832 -22.39948 40924 ft 444 kts 219°
2026-04-19 09:18 17.04299 -22.42767 40623 ft 448 kts 219°
2026-04-19 09:18 17.01514 -22.44184 40262 ft 445 kts 219°
2026-04-19 09:19 16.98710 -22.45606 39915 ft 441 kts 219°
2026-04-19 09:19 16.95965 -22.46998 39584 ft 438 kts 219°
2026-04-19 09:19 16.93208 -22.48401 39254 ft 437 kts 219°
2026-04-19 09:19 16.90400 -22.49829 38916 ft 437 kts 219°
2026-04-19 09:20 16.87655 -22.51227 38588 ft 439 kts 219°
2026-04-19 09:20 16.84900 -22.52632 38296 ft 442 kts 218°
2026-04-19 09:20 16.82125 -22.54045 38003 ft 442 kts 218°
2026-04-19 09:20 16.79334 -22.55461 37709 ft 442 kts 218°
2026-04-19 09:21 16.76562 -22.56868 37408 ft 442 kts 218°
2026-04-19 09:21 16.73807 -22.58266 37099 ft 442 kts 218°
2026-04-19 09:21 16.71037 -22.59670 36762 ft 444 kts 218°
2026-04-19 09:21 16.68247 -22.61087 36317 ft 443 kts 218°
2026-04-19 09:22 16.65510 -22.62475 35838 ft 444 kts 218°
2026-04-19 09:22 16.62708 -22.63895 35316 ft 444 kts 217°
2026-04-19 09:22 16.59912 -22.65311 34694 ft 445 kts 217°
2026-04-19 09:22 16.57150 -22.66711 34064 ft 445 kts 217°
2026-04-19 09:23 16.54379 -22.68114 33507 ft 445 kts 216°
2026-04-19 09:23 16.51577 -22.69534 32904 ft 446 kts 216°
2026-04-19 09:23 16.48760 -22.70957 32365 ft 446 kts 216°
2026-04-19 09:23 16.45966 -22.72371 31724 ft 448 kts 216°
2026-04-19 09:24 16.43165 -22.73792 31127 ft 448 kts 216°
2026-04-19 09:24 16.40371 -22.75201 30728 ft 444 kts 215°
2026-04-19 09:24 16.37617 -22.76588 30311 ft 440 kts 215°
2026-04-19 09:24 16.34838 -22.77990 29870 ft 438 kts 215°
2026-04-19 09:25 16.32138 -22.79353 29466 ft 434 kts 215°
2026-04-19 09:25 16.29422 -22.80723 29060 ft 431 kts 215°
2026-04-19 09:25 16.26736 -22.82081 28646 ft 428 kts 215°
2026-04-19 09:25 16.24068 -22.83431 28245 ft 425 kts 214°
2026-04-19 09:26 16.21477 -22.84740 27884 ft 421 kts 214°
2026-04-19 09:26 16.18850 -22.86066 27516 ft 418 kts 214°
2026-04-19 09:26 16.16231 -22.87384 27136 ft 415 kts 214°
2026-04-19 09:26 16.13625 -22.88677 26750 ft 413 kts 212°
2026-04-19 09:27 16.10991 -22.89846 26391 ft 412 kts 210°
2026-04-19 09:27 16.08332 -22.90989 26023 ft 409 kts 210°
2026-04-19 09:27 16.05721 -22.92108 25629 ft 407 kts 210°
2026-04-19 09:27 16.03118 -22.93223 25240 ft 404 kts 209°
2026-04-19 09:28 16.00501 -22.94345 24858 ft 402 kts 209°
2026-04-19 09:28 15.97925 -22.95447 24490 ft 399 kts 209°
2026-04-19 09:28 15.95369 -22.96544 24101 ft 397 kts 209°
2026-04-19 09:28 15.92783 -22.97653 23745 ft 394 kts 209°
2026-04-19 09:29 15.90245 -22.98743 23383 ft 392 kts 209°
2026-04-19 09:29 15.87715 -22.99827 23018 ft 389 kts 208°
2026-04-19 09:29 15.85223 -23.00895 22655 ft 387 kts 208°
2026-04-19 09:29 15.82750 -23.01954 22301 ft 384 kts 208°
2026-04-19 09:30 15.80275 -23.03015 21938 ft 383 kts 208°
2026-04-19 09:30 15.77812 -23.04071 21550 ft 382 kts 207°
2026-04-19 09:30 15.75359 -23.05122 21190 ft 380 kts 207°
2026-04-19 09:30 15.72921 -23.06166 20821 ft 378 kts 207°
2026-04-19 09:31 15.70465 -23.07218 20449 ft 377 kts 207°
2026-04-19 09:31 15.68069 -23.08244 20090 ft 375 kts 206°
2026-04-19 09:31 15.65658 -23.09275 19725 ft 373 kts 206°
2026-04-19 09:31 15.63240 -23.10310 19351 ft 371 kts 206°
2026-04-19 09:32 15.60845 -23.11333 18985 ft 369 kts 205°
2026-04-19 09:32 15.58497 -23.12338 18635 ft 367 kts 205°
2026-04-19 09:32 15.56122 -23.13352 18272 ft 365 kts 205°
2026-04-19 09:32 15.53779 -23.14350 17920 ft 362 kts 204°
2026-04-19 09:33 15.51427 -23.15296 17558 ft 361 kts 203°
2026-04-19 09:33 15.49091 -23.16212 17191 ft 359 kts 202°
2026-04-19 09:33 15.46733 -23.17133 16812 ft 357 kts 202°
2026-04-19 09:33 15.44428 -23.18036 16439 ft 355 kts 202°
2026-04-19 09:34 15.42105 -23.18949 16055 ft 353 kts 202°
2026-04-19 09:34 15.39808 -23.19853 15675 ft 352 kts 202°
2026-04-19 09:34 15.37498 -23.20763 15297 ft 350 kts 202°
2026-04-19 09:34 15.35231 -23.21656 14931 ft 348 kts 202°
2026-04-19 09:35 15.32958 -23.22552 14567 ft 346 kts 202°
2026-04-19 09:35 15.30725 -23.23432 14204 ft 344 kts 202°
2026-04-19 09:35 15.28474 -23.24320 13828 ft 342 kts 202°
2026-04-19 09:35 15.26242 -23.25200 13458 ft 341 kts 201°
2026-04-19 09:36 15.24033 -23.26070 13087 ft 339 kts 201°
2026-04-19 09:36 15.21838 -23.26934 12707 ft 338 kts 201°
2026-04-19 09:36 15.19620 -23.27807 12315 ft 337 kts 201°
2026-04-19 09:36 15.17421 -23.28673 11944 ft 335 kts 201°
2026-04-19 09:37 15.15245 -23.29530 11555 ft 334 kts 201°
2026-04-19 09:37 15.13094 -23.30377 11201 ft 332 kts 201°
2026-04-19 09:37 15.10915 -23.31234 10834 ft 331 kts 201°
2026-04-19 09:37 15.08752 -23.32085 10446 ft 329 kts 201°
2026-04-19 09:38 15.06618 -23.32925 10133 ft 325 kts 201°
2026-04-19 09:38 15.04521 -23.33748 10061 ft 313 kts 201°
2026-04-19 09:38 15.02513 -23.34537 10048 ft 300 kts 201°
2026-04-19 09:38 15.00581 -23.35296 10012 ft 290 kts 201°
2026-04-19 09:39 14.98724 -23.36026 9946 ft 280 kts 201°
2026-04-19 09:39 14.96880 -23.36750 9670 ft 278 kts 201°
2026-04-19 09:39 14.95078 -23.37459 9373 ft 278 kts 201°
2026-04-19 09:39 14.93237 -23.38182 9087 ft 277 kts 201°
2026-04-19 09:40 14.91431 -23.38891 8811 ft 276 kts 201°
2026-04-19 09:40 14.89639 -23.39595 8538 ft 276 kts 201°
2026-04-19 09:40 14.87842 -23.40301 8264 ft 275 kts 201°
2026-04-19 09:40 14.86054 -23.41004 7991 ft 274 kts 201°
2026-04-19 09:41 14.84255 -23.41711 7722 ft 274 kts 201°
2026-04-19 09:41 14.82478 -23.42409 7459 ft 274 kts 200°
2026-04-19 09:41 14.80698 -23.43107 7179 ft 273 kts 200°
2026-04-19 09:41 14.78921 -23.43805 6913 ft 273 kts 200°
2026-04-19 09:42 14.77125 -23.44509 6661 ft 272 kts 200°
2026-04-19 09:42 14.75355 -23.45204 6386 ft 272 kts 200°
2026-04-19 09:42 14.73570 -23.45902 6129 ft 272 kts 200°
2026-04-19 09:42 14.71875 -23.46762 5851 ft 272 kts 220°
2026-04-19 09:43 14.70716 -23.48269 5594 ft 270 kts 245°
2026-04-19 09:43 14.69986 -23.50035 5355 ft 268 kts 249°
2026-04-19 09:43 14.69289 -23.51825 5123 ft 267 kts 249°
2026-04-19 09:43 14.68587 -23.53597 4871 ft 266 kts 249°
2026-04-19 09:44 14.67868 -23.55377 4625 ft 266 kts 248°
2026-04-19 09:44 14.67148 -23.57135 4421 ft 262 kts 249°
2026-04-19 09:44 14.66760 -23.58886 4356 ft 247 kts 278°
2026-04-19 09:44 14.67343 -23.60476 4297 ft 232 kts 310°
2026-04-19 09:45 14.68585 -23.61490 4078 ft 226 kts 340°
2026-04-19 09:45 14.70098 -23.61744 3847 ft 222 kts
2026-04-19 09:45 14.71543 -23.61229 3625 ft 219 kts 35°
2026-04-19 09:45 14.72572 -23.60083 3408 ft 219 kts 62°
2026-04-19 09:46 14.73132 -23.58619 3199 ft 218 kts 66°
2026-04-19 09:46 14.73911 -23.57301 3017 ft 211 kts 43°
2026-04-19 09:46 14.75070 -23.56439 3023 ft 197 kts 27°
2026-04-19 09:46 14.76265 -23.55865 2966 ft 182 kts 22°
2026-04-19 09:47 14.77395 -23.55401 2867 ft 166 kts 21°
2026-04-19 09:47 14.78422 -23.54989 2776 ft 150 kts 21°
2026-04-19 09:47 14.79364 -23.54606 2707 ft 139 kts 21°
2026-04-19 09:47 14.80250 -23.54242 2656 ft 135 kts 21°
2026-04-19 09:48 14.81129 -23.53877 2610 ft 135 kts 21°
2026-04-19 09:48 14.82013 -23.53509 2556 ft 134 kts 21°
2026-04-19 09:48 14.82880 -23.53147 2508 ft 134 kts 21°
2026-04-19 09:48 14.83767 -23.52776 2350 ft 134 kts 21°
2026-04-19 09:49 14.84628 -23.52417 2162 ft 133 kts 21°
2026-04-19 09:49 14.85499 -23.52054 1981 ft 133 kts 21°
2026-04-19 09:49 14.86358 -23.51697 1805 ft 133 kts 21°
2026-04-19 09:49 14.87221 -23.51337 1628 ft 132 kts 21°
2026-04-19 09:50 14.88077 -23.50982 1449 ft 132 kts 21°
2026-04-19 09:50 14.88934 -23.50626 1274 ft 132 kts 21°
2026-04-19 09:50 14.89808 -23.50262 1094 ft 131 kts 21°
2026-04-19 09:50 14.90625 -23.49923 920 ft 131 kts 22°
2026-04-19 09:51 14.91419 -23.49593 753 ft 131 kts 22°
2026-04-19 09:51 14.92206 -23.49266 606 ft 130 kts 22°
2026-04-19 09:51 14.93003 -23.48935 436 ft 128 kts 22°
2026-04-19 09:51 14.93772 -23.48616 411 ft 112 kts 22°
2026-04-19 09:52 14.94409 -23.48345 321 ft 73 kts 22°
2026-04-19 09:52 14.94568 -23.48283 323 ft 0 kts
2026-04-19 09:52 14.94572 -23.48287 323 ft 1 kts 311°
2026-04-19 09:52 14.94572 -23.48293 323 ft 1 kts 264°
2026-04-19 09:53 14.94570 -23.48305 324 ft 2 kts 258°
2026-04-19 09:53 14.94566 -23.48320 324 ft 2 kts 256°
2026-04-19 09:53 14.94562 -23.48336 325 ft 2 kts 255°
2026-04-19 09:53 14.94559 -23.48351 326 ft 1 kts 261°
2026-04-19 09:54 14.94558 -23.48357 326 ft 0 kts 271°
2026-04-19 09:54 14.94559 -23.48363 327 ft 0 kts 279°
2026-04-19 09:54 14.94560 -23.48368 327 ft 0 kts 283°
2026-04-19 09:54 14.94561 -23.48370 327 ft 2 kts 286°
2026-04-19 09:55 14.94571 -23.48404 329 ft 7 kts 282°
2026-04-19 09:55 14.94553 -23.48455 330 ft 8 kts 218°
2026-04-19 09:55 14.94529 -23.48474 330 ft 3 kts 244°
2026-04-19 09:55 14.94526 -23.48481 330 ft 1 kts 244°
2026-04-19 09:56 14.94519 -23.48498 331 ft 3 kts 245°
2026-04-19 09:56 14.94515 -23.48512 331 ft 0 kts 263°
2026-04-19 09:56 14.94515 -23.48514 331 ft 0 kts 270°
2026-04-19 09:56 14.94515 -23.48518 331 ft 0 kts 282°
2026-04-19 09:57 14.94516 -23.48519 331 ft 0 kts 284°
2026-04-19 09:57 14.94516 -23.48522 331 ft 0 kts 288°
2026-04-19 09:57 14.94519 -23.48530 332 ft 1 kts 289°
2026-04-19 09:57 14.94521 -23.48535 332 ft 0 kts 289°
2026-04-19 09:58 14.94520 -23.48535 332 ft 0 kts 290°